GW6850 Weather Reports


time (UTC)temp
C
wind
direction
speed
KPH
gust
KPH
rain 1hr
cm
rain 24hr
cm
rain mn
cm
humidity
%
barometer
mb
20260505040009 14 124 1.6 1.6 0.00 0.00 0.00 57 1009.3
20260505035509 14 114 3.2 3.2 0.00 0.00 0.00 56 1009.1
20260505035009 14 141 1.6 1.6 0.00 0.00 0.00 55 1009.1
20260505034031 14 146 1.6 1.6 0.00 0.00 0.00 54 1009.0
20260505033508 15 253 1.6 1.6 0.00 0.00 0.00 54 1009.0
20260505033009 15 267 1.6 3.2 0.00 0.00 0.00 53 1009.0
20260505032508 15 305 1.6 1.6 0.00 0.00 0.00 50 1009.0
20260505032009 15 255 6.4 6.4 0.00 0.00 0.00 51 1008.9
20260505031509 15 252 1.6 3.2 0.00 0.00 0.00 52 1008.9
20260505031008 15 165 0.0 1.6 0.00 0.00 0.00 51 1008.9
20260505030509 16 108 1.6 1.6 0.00 0.00 0.00 51 1008.6
20260505030008 16 31 0.0 0.0 0.00 0.00 0.00 49 1008.5
20260505025508 16 21 3.2 3.2 0.00 0.00 0.00 49 1008.6
20260505025009 16 30 3.2 4.8 0.00 0.00 0.00 47 1008.6
20260505024509 16 0 3.2 4.8 0.00 0.00 0.00 47 1008.5
20260505024009 16 6 4.8 4.8 0.00 0.00 0.00 46 1008.5
20260505023508 16 41 6.4 8.0 0.00 0.00 0.00 48 1008.3
20260505023008 16 49 3.2 3.2 0.00 0.00 0.00 47 1008.5
20260505022508 16 1 3.2 4.8 0.00 0.00 0.00 47 1008.5
20260505022009 16 27 3.2 4.8 0.00 0.00 0.00 48 1008.6
20260505021508 16 60 3.2 3.2 0.00 0.00 0.00 48 1008.6
20260505021008 16 20 3.2 3.2 0.00 0.00 0.00 45 1008.6
20260505020509 16 15 3.2 3.2 0.00 0.00 0.00 45 1008.7
20260505020008 16 1 4.8 8.0 0.00 0.00 0.00 45 1008.7
20260505015508 16 352 4.8 6.4 0.00 0.00 0.00 48 1008.6
20260505015009 16 354 4.8 6.4 0.00 0.00 0.00 51 1008.6
20260505014509 16 20 3.2 4.8 0.00 0.00 0.00 50 1008.5
20260505014008 16 20 3.2 6.4 0.00 0.00 0.00 49 1008.5
20260505013508 16 6 6.4 9.7 0.00 0.00 0.00 48 1008.3
20260505013008 16 6 4.8 11.3 0.00 0.00 0.00 48 1008.3
20260505012508 17 9 6.4 12.9 0.00 0.00 0.00 48 1008.3
20260505012008 17 0 4.8 12.9 0.00 0.00 0.00 47 1008.2
20260505011509 17 0 4.8 8.0 0.00 0.00 0.00 47 1008.2
20260505011008 17 342 8.0 12.9 0.00 0.00 0.00 46 1008.2
20260505010509 17 324 6.4 11.3 0.00 0.00 0.00 45 1008.2
20260505010008 17 349 9.7 12.9 0.00 0.00 0.00 44 1007.9
20260505005509 18 311 9.7 16.1 0.00 0.00 0.00 42 1007.8
20260505005009 18 12 6.4 9.7 0.00 0.00 0.00 40 1007.7
20260505004508 18 6 8.0 12.9 0.00 0.00 0.00 40 1007.5
20260505004009 18 9 6.4 12.9 0.00 0.00 0.00 40 1007.7
20260505003508 19 359 9.7 17.7 0.00 0.00 0.00 39 1007.9
20260505003008 20 339 12.9 17.7 0.00 0.00 0.00 37 1007.8
20260505002509 20 102 6.4 9.7 0.00 0.00 0.00 37 1007.4
20260505002009 20 101 8.0 11.3 0.00 0.00 0.00 38 1007.4
20260505001508 20 136 9.7 14.5 0.00 0.00 0.00 39 1007.4
20260505001008 20 136 11.3 14.5 0.00 0.00 0.00 39 1007.4
20260505000508 20 126 9.7 11.3 0.00 0.00 0.00 39 1007.5
20260505000008 20 120 6.4 11.3 0.00 0.00 0.00 43 1007.7
20260504235508 20 135 6.4 9.7 0.00 0.00 0.00 42 1007.5
20260504235008 20 140 6.4 9.7 0.00 0.00 0.00 42 1007.4
20260504234509 20 141 8.0 11.3 0.00 0.00 0.00 40 1007.4
20260504234010 20 155 6.4 8.0 0.00 0.00 0.00 41 1007.7
20260504233508 20 124 8.0 11.3 0.00 0.00 0.00 40 1007.5
20260504233008 20 140 8.0 11.3 0.00 0.00 0.00 39 1007.5
20260504232509 20 155 8.0 11.3 0.00 0.00 0.00 39 1007.8
20260504232008 20 158 9.7 11.3 0.00 0.00 0.00 38 1007.5
20260504231509 20 161 6.4 11.3 0.00 0.00 0.00 38 1007.5
20260504231008 20 163 8.0 11.3 0.00 0.00 0.00 36 1007.7
20260504230509 20 159 8.0 14.5 0.00 0.00 0.00 37 1007.7
20260504230008 21 168 9.7 17.7 0.00 0.00 0.00 35 1007.5
20260504225511 21 168 9.7 12.9 0.00 0.00 0.00 33 1007.5
20260504225008 21 156 9.7 14.5 0.00 0.00 0.00 34 1007.4
20260504224509 21 176 4.8 8.0 0.00 0.00 0.00 32 1007.5
20260504224009 21 193 3.2 6.4 0.00 0.00 0.00 33 1007.5
20260504223508 21 152 3.2 4.8 0.00 0.00 0.00 34 1007.5
20260504223009 21 218 3.2 6.4 0.00 0.00 0.00 33 1007.4
20260504222508 21 111 1.6 4.8 0.00 0.00 0.00 32 1007.5
20260504222008 21 65 3.2 6.4 0.00 0.00 0.00 30 1007.5
20260504221509 21 76 3.2 6.4 0.00 0.00 0.00 29 1007.5
20260504221009 22 269 6.4 8.0 0.00 0.00 0.00 34 1007.8
20260504220508 21 315 3.2 4.8 0.00 0.00 0.00 32 1007.7
20260504220009 22 347 4.8 8.0 0.00 0.00 0.00 30 1007.8
20260504215509 22 342 6.4 9.7 0.00 0.00 0.00 29 1007.8
20260504215008 22 257 6.4 9.7 0.00 0.00 0.00 32 1007.8
20260504214509 22 295 3.2 4.8 0.00 0.00 0.00 30 1007.9
20260504214009 22 39 3.2 6.4 0.00 0.00 0.00 31 1008.1
20260504213509 21 2 1.6 3.2 0.00 0.00 0.00 30 1008.0
20260504213010 21 282 9.7 12.9 0.00 0.00 0.00 33 1008.3
20260504212508 22 332 9.7 14.5 0.00 0.00 0.00 31 1008.3
20260504212008 21 327 6.4 9.7 0.00 0.00 0.00 32 1008.6
20260504211509 21 347 6.4 9.7 0.00 0.00 0.00 34 1008.6
20260504211008 21 47 6.4 11.3 0.00 0.00 0.00 34 1008.6
20260504210509 21 26 6.4 12.9 0.00 0.00 0.00 35 1008.8
20260504210008 21 7 8.0 14.5 0.00 0.00 0.00 35 1008.9
20260504205508 20 352 8.0 12.9 0.00 0.00 0.00 35 1008.9
20260504205009 20 358 4.8 9.7 0.00 0.00 0.00 36 1009.1
20260504204510 20 358 12.9 19.3 0.00 0.00 0.00 36 1009.3
20260504204008 20 344 14.5 20.9 0.00 0.00 0.00 36 1009.3
20260504203508 20 350 16.1 25.7 0.00 0.00 0.00 37 1009.3
20260504203009 20 339 11.3 20.9 0.00 0.00 0.00 39 1009.4
20260504202508 20 347 16.1 20.9 0.00 0.00 0.00 39 1009.5
20260504202008 21 351 14.5 20.9 0.00 0.00 0.00 38 1009.1
20260504201509 21 325 20.9 30.6 0.00 0.00 0.00 36 1009.5
20260504201009 21 281 9.7 12.9 0.00 0.00 0.00 34 1009.4
20260504200509 21 305 14.5 19.3 0.00 0.00 0.00 33 1009.3
20260504200009 21 269 8.0 11.3 0.00 0.00 0.00 34 1009.4
20260504195508 21 291 11.3 20.9 0.00 0.00 0.00 33 1009.4
20260504195008 21 265 12.9 16.1 0.00 0.00 0.00 35 1009.5
20260504194024 20 290 9.7 12.9 0.00 0.00 0.00 34 1009.6
20260504193509 20 265 14.5 20.9 0.00 0.00 0.00 37 1009.8
20260504193008 20 289 16.1 19.3 0.00 0.00 0.00 36 1009.8
20260504192509 20 295 14.5 17.7 0.00 0.00 0.00 37 1010.0
20260504192008 20 305 14.5 19.3 0.00 0.00 0.00 36 1010.0
20260504191508 20 262 8.0 11.3 0.00 0.00 0.00 40 1010.1
20260504191009 20 326 6.4 11.3 0.00 0.00 0.00 39 1010.2
20260504190509 20 317 11.3 16.1 0.00 0.00 0.00 38 1010.1
20260504190009 20 17 4.8 9.7 0.00 0.00 0.00 38 1010.3
20260504185509 20 322 12.9 19.3 0.00 0.00 0.00 39 1010.4
20260504185009 19 317 9.7 14.5 0.00 0.00 0.00 42 1010.4
20260504184510 19 295 14.5 17.7 0.00 0.00 0.00 38 1010.5
20260504184008 19 285 14.5 19.3 0.00 0.00 0.00 38 1010.6
20260504183509 18 10 0.0 3.2 0.00 0.00 0.00 44 1010.9
20260504183008 18 233 4.8 8.0 0.00 0.00 0.00 41 1011.0
20260504182509 18 342 8.0 12.9 0.00 0.00 0.00 41 1011.1
20260504182009 18 313 11.3 19.3 0.00 0.00 0.00 43 1011.2
20260504181509 18 74 4.8 9.7 0.00 0.00 0.00 47 1011.3
20260504181009 17 349 6.4 8.0 0.00 0.00 0.00 44 1011.3
20260504180508 18 91 3.2 6.4 0.00 0.00 0.00 52 1011.6
20260504180008 18 130 4.8 9.7 0.00 0.00 0.00 43 1011.6
20260504175508 17 129 1.6 3.2 0.00 0.00 0.00 42 1011.7
20260504175009 17 37 3.2 6.4 0.00 0.00 0.00 42 1011.8
20260504174509 18 357 3.2 8.0 0.00 0.00 0.00 43 1011.8
20260504174012 17 240 1.6 3.2 0.00 0.00 0.00 43 1011.9
20260504173508 18 279 9.7 16.1 0.00 0.00 0.00 44 1011.9
20260504173009 17 307 6.4 11.3 0.00 0.00 0.00 46 1012.0
20260504172508 17 331 8.0 11.3 0.00 0.00 0.00 44 1012.1
20260504172008 17 308 8.0 9.7 0.00 0.00 0.00 46 1012.2
20260504171508 17 332 6.4 8.0 0.00 0.00 0.00 48 1012.4
20260504171008 17 326 4.8 6.4 0.00 0.00 0.00 45 1012.4
20260504170508 17 346 4.8 6.4 0.00 0.00 0.00 44 1012.2
20260504151009 16 135 8.0 9.7 0.00 0.00 0.00 50 1012.9
20260504150508 16 104 6.4 11.3 0.00 0.00 0.00 50 1012.9
20260504141009 15 125 9.7 14.5 0.00 0.00 0.00 54 1012.9
20260504140509 15 117 9.7 14.5 0.00 0.00 0.00 55 1012.9
20260504110508 13 138 6.4 9.7 0.00 0.00 0.00 57 1012.6
20260504100509 15 142 9.7 12.9 0.00 0.00 0.00 44 1012.8
20260504081509 12 99 3.2 3.2 0.00 0.00 0.00 42 1012.0
20260504081009 12 28 0.0 1.6 0.00 0.00 0.00 41 1011.9
20260504080508 12 83 1.6 1.6 0.00 0.00 0.00 37 1011.9
20260504050513 11 90 3.2 3.2 0.00 0.00 0.00 40 1010.9
20260504050011 11 56 1.6 1.6 0.00 0.00 0.00 39 1010.9
20260504045508 11 55 1.6 3.2 0.00 0.00 0.00 38 1010.9
20260504045008 11 284 0.0 1.6 0.00 0.00 0.00 41 1010.9
20260504044509 11 73 3.2 3.2 0.00 0.00 0.00 42 1010.9
20260504044008 11 70 0.0 1.6 0.00 0.00 0.00 41 1010.9
20260504043508 11 56 1.6 1.6 0.00 0.00 0.00 42 1010.9
20260504043008 11 87 1.6 3.2 0.00 0.00 0.00 39 1010.9
20260504042509 11 55 1.6 1.6 0.00 0.00 0.00 38 1010.9
20260504042008 11 63 4.8 4.8 0.00 0.00 0.00 42 1010.9
20260504041508 11 43 1.6 1.6 0.00 0.00 0.00 43 1010.9
20260504041009 11 342 3.2 4.8 0.00 0.00 0.00 41 1010.9
20260504040508 11 56 3.2 4.8 0.00 0.00 0.00 41 1011.0